| time (UTC) | temp F | wind direction | speed MPH | gust MPH | rain 1hr in | rain 24hr in | rain mn in | humidity % | barometer mb |
| 20260510074543 | 44 | 311 | 0.0 | 2.0 | 0.00 | 0.00 | 0.00 | 58 | 1017.0 |
| 20260510073048 | 45 | 312 | 0.0 | 0.0 | 0.00 | 0.00 | 0.00 | 57 | 1017.0 |
| 20260510071537 | 46 | 312 | 0.0 | 0.0 | 0.00 | 0.00 | 0.00 | 55 | 1017.1 |
| 20260510070037 | 47 | 312 | 0.0 | 2.0 | 0.00 | 0.00 | 0.00 | 54 | 1017.1 |
| 20260510064535 | 47 | 312 | 0.0 | 2.0 | 0.00 | 0.00 | 0.00 | 53 | 1016.9 |
| 20260510063032 | 47 | 312 | 1.0 | 3.0 | 0.00 | 0.00 | 0.00 | 52 | 1016.9 |
| 20260510061530 | 48 | 313 | 1.0 | 3.0 | 0.00 | 0.00 | 0.00 | 52 | 1016.8 |
| 20260510060038 | 48 | 313 | 1.0 | 3.0 | 0.00 | 0.00 | 0.00 | 52 | 1016.8 |
| 20260510054525 | 48 | 313 | 0.0 | 2.0 | 0.00 | 0.00 | 0.00 | 49 | 1016.7 |
| 20260510053023 | 48 | 314 | 1.0 | 2.0 | 0.00 | 0.00 | 0.00 | 49 | 1016.6 |
| 20260510051520 | 49 | 315 | 0.0 | 2.0 | 0.00 | 0.00 | 0.00 | 46 | 1016.3 |
| 20260510050017 | 50 | 315 | 0.0 | 3.0 | 0.00 | 0.00 | 0.00 | 45 | 1016.4 |
| 20260510044515 | 50 | 319 | 1.0 | 5.0 | 0.00 | 0.00 | 0.00 | 44 | 1016.5 |
| 20260510043013 | 51 | 303 | 2.0 | 5.0 | 0.00 | 0.00 | 0.00 | 44 | 1016.4 |
| 20260510041511 | 51 | 324 | 2.0 | 6.0 | 0.00 | 0.00 | 0.00 | 43 | 1016.3 |
| 20260510040008 | 52 | 324 | 3.0 | 8.0 | 0.00 | 0.00 | 0.00 | 41 | 1016.1 |
| 20260510034505 | 52 | 328 | 2.0 | 10.0 | 0.00 | 0.00 | 0.00 | 42 | 1015.9 |
| 20260510033002 | 52 | 331 | 3.0 | 6.0 | 0.00 | 0.00 | 0.00 | 41 | 1015.7 |
| 20260510031606 | 53 | 296 | 4.0 | 8.0 | 0.00 | 0.00 | 0.00 | 39 | 1015.5 |
| 20260510030059 | 53 | 322 | 4.0 | 9.0 | 0.00 | 0.00 | 0.00 | 38 | 1015.2 |
| 20260510024553 | 54 | 296 | 4.0 | 10.0 | 0.00 | 0.00 | 0.00 | 37 | 1015.0 |
| 20260510023052 | 54 | 293 | 4.0 | 9.0 | 0.00 | 0.00 | 0.00 | 37 | 1014.6 |
| 20260510021547 | 54 | 284 | 4.0 | 10.0 | 0.00 | 0.00 | 0.00 | 36 | 1014.2 |
| 20260510020044 | 55 | 309 | 4.0 | 10.0 | 0.00 | 0.00 | 0.00 | 35 | 1013.9 |
| 20260510014545 | 56 | 333 | 8.0 | 14.0 | 0.00 | 0.00 | 0.00 | 34 | 1013.5 |
| 20260510013045 | 56 | 329 | 5.0 | 12.0 | 0.00 | 0.00 | 0.00 | 33 | 1013.4 |
| 20260510011536 | 57 | 329 | 8.0 | 14.0 | 0.00 | 0.00 | 0.00 | 32 | 1013.0 |
| 20260510010034 | 58 | 296 | 8.0 | 15.0 | 0.00 | 0.00 | 0.00 | 31 | 1012.9 |
| 20260510004532 | 58 | 296 | 5.0 | 17.0 | 0.00 | 0.00 | 0.00 | 31 | 1012.7 |
| 20260510003032 | 59 | 333 | 6.0 | 14.0 | 0.00 | 0.00 | 0.00 | 30 | 1012.5 |
| 20260510001529 | 59 | 315 | 7.0 | 18.0 | 0.00 | 0.00 | 0.00 | 30 | 1012.4 |
| 20260510000027 | 60 | 326 | 6.0 | 14.0 | 0.00 | 0.00 | 0.00 | 29 | 1012.2 |
| 20260509234535 | 60 | 325 | 6.0 | 15.0 | 0.00 | 0.00 | 0.00 | 29 | 1012.0 |
| 20260509233024 | 60 | 315 | 8.0 | 18.0 | 0.00 | 0.00 | 0.00 | 29 | 1011.9 |
| 20260509231523 | 60 | 332 | 5.0 | 15.0 | 0.00 | 0.00 | 0.00 | 28 | 1011.8 |
| 20260509230022 | 60 | 280 | 10.0 | 17.0 | 0.00 | 0.00 | 0.00 | 28 | 1011.6 |
| 20260509224520 | 60 | 322 | 7.0 | 20.0 | 0.00 | 0.00 | 0.00 | 28 | 1011.3 |
| 20260509223020 | 61 | 315 | 7.0 | 20.0 | 0.00 | 0.00 | 0.00 | 29 | 1011.2 |
| 20260509221520 | 60 | 331 | 9.0 | 19.0 | 0.00 | 0.00 | 0.00 | 28 | 1011.2 |
| 20260509220018 | 61 | 360 | 9.0 | 15.0 | 0.00 | 0.00 | 0.00 | 28 | 1011.1 |
| 20260509214520 | 61 | 355 | 6.0 | 16.0 | 0.00 | 0.00 | 0.00 | 29 | 1011.1 |
| 20260509213015 | 61 | 325 | 8.0 | 18.0 | 0.00 | 0.00 | 0.00 | 29 | 1010.9 |
| 20260509211515 | 60 | 297 | 6.0 | 19.0 | 0.00 | 0.00 | 0.00 | 30 | 1010.9 |
| 20260509210012 | 60 | 13 | 6.0 | 15.0 | 0.00 | 0.00 | 0.00 | 29 | 1010.9 |
| 20260509204512 | 60 | 343 | 9.0 | 21.0 | 0.00 | 0.00 | 0.00 | 30 | 1010.8 |
| 20260509203010 | 60 | 323 | 6.0 | 20.0 | 0.00 | 0.00 | 0.00 | 28 | 1010.7 |
| 20260509201510 | 60 | 333 | 7.0 | 17.0 | 0.00 | 0.00 | 0.00 | 30 | 1010.8 |
| 20260509200008 | 59 | 323 | 8.0 | 18.0 | 0.00 | 0.00 | 0.00 | 29 | 1010.8 |
| 20260509194507 | 60 | 317 | 7.0 | 18.0 | 0.00 | 0.00 | 0.00 | 31 | 1010.7 |
| 20260509193006 | 59 | 290 | 12.0 | 23.0 | 0.00 | 0.00 | 0.00 | 29 | 1010.6 |
| 20260509191506 | 59 | 271 | 6.0 | 16.0 | 0.00 | 0.00 | 0.00 | 34 | 1010.5 |
| 20260509190004 | 58 | 302 | 11.0 | 21.0 | 0.00 | 0.00 | 0.00 | 32 | 1010.6 |
| 20260509184655 | 58 | 304 | 10.0 | 18.0 | 0.00 | 0.00 | 0.00 | 35 | 1010.4 |
| 20260509183106 | 59 | 347 | 9.0 | 22.0 | 0.00 | 0.00 | 0.00 | 36 | 1010.3 |
| 20260509181556 | 58 | 305 | 8.0 | 16.0 | 0.00 | 0.00 | 0.00 | 36 | 1010.0 |
| 20260509180050 | 58 | 13 | 6.0 | 14.0 | 0.00 | 0.00 | 0.00 | 37 | 1009.9 |
| 20260509174547 | 57 | 321 | 12.0 | 19.0 | 0.00 | 0.00 | 0.00 | 37 | 1009.5 |